Regional Weather Roundup
Issued by NWS State College, PA

Home | Current Version | Previous Version | Graphics & Text | Print | Product List | Glossary On
Versions: 1 2 3 4 5 6 7 8 9 10 11 12 13 14 15 16 17 18 19 20 21 22 23 24 25 26 27 28 29 30 31 32 33 34 35 36 37 38 39 40 41 42 43 44 45 46 47 48 49 50
000
ASUS41 KCTP 250903
RWRCTP

REGIONAL WEATHER ROUNDUP
NATIONAL WEATHER SERVICE STATE COLLEGE PA
400 AM EST THU DEC 25 2014

Note: "fair" indicates few or no clouds below 12,000 feet with no
significant weather and/or obstructions to visibility.

* = STATION THAT DOES NOT REPORT PRECIPITATION /E.G. RAIN...SNOW...ETC/
    THUNDER OR FOG.

PAZ002>004-007>009-013>016-020>023-029>032-251000-
WESTERN PENNSYLVANIA

CITY           SKY/WX    TMP DP  RH WIND       PRES   REMARKS
ERIE           CLOUDY    41  32  70 SW15G22   29.61R
MEADVILLE      CLOUDY    38  30  73 SW13G18   29.62S
FRANKLIN*      CLOUDY    37  28  70 SW10      29.66R
NEW CASTLE       N/A     38  32  79 SW10G23   29.69R
BEAVER COUNTY  NOT AVBL
BUTLER*        CLOUDY    37  30  75 SW15G26   29.71R
PITTSBURGH INT CLOUDY    40  33  76 W12G25    29.70R
PITTSBURGH     CLOUDY    39  31  72 SW15      29.70R
INDIANA*       CLOUDY    39  36  87 W14G23    29.72R
LATROBE        CLOUDY    39  36  87 SW13G20   29.73S
WASHINGTON CO* NOT AVBL
$$

PAZ004>006-010>012-017>019-024>028-033>037-041-042-045-046-049>053-251000-
CENTRAL PENNSYLVANIA

CITY           SKY/WX    TMP DP  RH WIND       PRES   REMARKS
BRADFORD       CLOUDY    37  31  78 SW9G25    29.57S
DUBOIS         CLOUDY    38  34  85 SW17      29.62R
CLEARFIELD     CLOUDY    39  33  79 W18G29    29.63R
JOHNSTOWN      LGT RAIN  36  31  82 W23G33    29.66R
ALTOONA        CLOUDY    42  34  73 W14       29.66F
STATE COLLEGE  CLOUDY    42  35  75 SW9       29.64R
WILLIAMSPORT   CLOUDY    45  38  76 W5        29.62S
SELINSGROVE    LGT RAIN  46  40  79 SW7       29.65R
FT INDIANTOWN  LGT RAIN  47  46  98 W18G26    29.65R
CAPITAL CITY   LGT RAIN  48  42  80 W13       29.65R
HARRISBURG     RAIN      47  41  80 NW15G28   29.65R
YORK           RAIN      49  44  83 W9        29.65S
$$

PAZ038>040-043-044-047-048-054-055-060>062-067>071-251000-
EASTERN PENNSYLVANIA

CITY           SKY/WX    TMP DP  RH WIND       PRES   REMARKS
SCRANTON       RAIN      47  40  76 SW13G25   29.60R
MOUNT POCONO   LGT RAIN  44  39  82 W18G38    29.57R
ALLENTOWN      LGT RAIN  54  46  74 W13G23    29.60R
QUAKERTOWN*    NOT AVBL
READING        LGT RAIN  52  47  83 W15G25    29.63R
LANCASTER      LGT RAIN  50  45  83 W18       29.62R
COATESVILLE    LGT RAIN  54  54 100 W7        29.62S
POTTSTOWN      LGT RAIN  54  49  83 W9G18     29.62R
BLUE BELL      CLOUDY    57  52  82 W9G17     29.59R
DOYLESTOWN     LGT RAIN  54 N/A N/A W9G20     29.60R
WILLOW GROVE   NOT AVBL
NORTH PHILA    LGT RAIN  60  50  69 W13       29.60R
PHILADELPHIA   LGT RAIN  59  49  69 NW15      29.61R
$$



USA.gov is the U.S. government's official web portal to all federal, state and local government web resources and services.